#Datum;Uhrzeit;WR;Pac;DaySum;Status;WR;Pac;DaySum;Status;Pdc1;Udc;Temp;WR;Pac;DaySum;Status;Pdc1;Udc;Temp;WR;Pac;DaySum;Status;Pdc1;Udc;Temp;WR;Pac;DaySum;Status;Pdc1;Pdc2;Udc1;Udc2;Temp;WR;Pac;DaySum;Status;Pdc1;Pdc2;Udc1;Udc2;Temp;WR;Pac;DaySum;Status;Pdc1;Udc;Temp;WR;Pac;DaySum;Status;Pdc1;Udc;Temp;WR;Pac;DaySum;Status;Pdc1;Udc;Temp
11.02.20;23:55:00;1;239;23088;0;2;0;13132;0;0;0;0;3;0;8338;0;0;0;0;4;0;10449;0;0;0;0;5;0;26150;0;0;0;0;0;0;6;0;19769;0;0;0;0;0;0;7;0;18587;0;0;0;0;8;0;17679;0;0;0;0;9;0;9271;0;0;0;0
11.02.20;23:50:00;1;247;23068;0;2;0;13132;0;0;0;0;3;0;8338;0;0;0;0;4;0;10449;0;0;0;0;5;0;26150;0;0;0;0;0;0;6;0;19769;0;0;0;0;0;0;7;0;18587;0;0;0;0;8;0;17679;0;0;0;0;9;0;9271;0;0;0;0
11.02.20;23:45:00;1;282;23047;0;2;0;13132;0;0;0;0;3;0;8338;0;0;0;0;4;0;10449;0;0;0;0;5;0;26150;0;0;0;0;0;0;6;0;19769;0;0;0;0;0;0;7;0;18587;0;0;0;0;8;0;17679;0;0;0;0;9;0;9271;0;0;0;0
11.02.20;23:40:00;1;240;23023;0;2;0;13132;0;0;0;0;3;0;8338;0;0;0;0;4;0;10449;0;0;0;0;5;0;26150;0;0;0;0;0;0;6;0;19769;0;0;0;0;0;0;7;0;18587;0;0;0;0;8;0;17679;0;0;0;0;9;0;9271;0;0;0;0
11.02.20;23:35:00;1;240;23003;0;2;0;13132;0;0;0;0;3;0;8338;0;0;0;0;4;0;10449;0;0;0;0;5;0;26150;0;0;0;0;0;0;6;0;19769;0;0;0;0;0;0;7;0;18587;0;0;0;0;8;0;17679;0;0;0;0;9;0;9271;0;0;0;0
11.02.20;23:30:00;1;274;22983;0;2;0;13132;0;0;0;0;3;0;8338;0;0;0;0;4;0;10449;0;0;0;0;5;0;26150;0;0;0;0;0;0;6;0;19769;0;0;0;0;0;0;7;0;18587;0;0;0;0;8;0;17679;0;0;0;0;9;0;9271;0;0;0;0
11.02.20;23:25:00;1;625;22959;0;2;0;13132;0;0;0;0;3;0;8338;0;0;0;0;4;0;10449;0;0;0;0;5;0;26150;0;0;0;0;0;0;6;0;19769;0;0;0;0;0;0;7;0;18587;0;0;0;0;8;0;17679;0;0;0;0;9;0;9271;0;0;0;0
11.02.20;23:20:00;1;281;22912;0;2;0;13132;0;0;0;0;3;0;8338;0;0;0;0;4;0;10449;0;0;0;0;5;0;26150;0;0;0;0;0;0;6;0;19769;0;0;0;0;0;0;7;0;18587;0;0;0;0;8;0;17679;0;0;0;0;9;0;9271;0;0;0;0
11.02.20;23:15:00;1;277;22888;0;2;0;13132;0;0;0;0;3;0;8338;0;0;0;0;4;0;10449;0;0;0;0;5;0;26150;0;0;0;0;0;0;6;0;19769;0;0;0;0;0;0;7;0;18587;0;0;0;0;8;0;17679;0;0;0;0;9;0;9271;0;0;0;0
11.02.20;23:10:00;1;293;22865;0;2;0;13132;0;0;0;0;3;0;8338;0;0;0;0;4;0;10449;0;0;0;0;5;0;26150;0;0;0;0;0;0;6;0;19769;0;0;0;0;0;0;7;0;18587;0;0;0;0;8;0;17679;0;0;0;0;9;0;9271;0;0;0;0
11.02.20;23:05:00;1;266;22840;0;2;0;13132;0;0;0;0;3;0;8338;0;0;0;0;4;0;10449;0;0;0;0;5;0;26150;0;0;0;0;0;0;6;0;19769;0;0;0;0;0;0;7;0;18587;0;0;0;0;8;0;17679;0;0;0;0;9;0;9271;0;0;0;0
11.02.20;23:00:00;1;244;22819;0;2;0;13132;0;0;0;0;3;0;8338;0;0;0;0;4;0;10449;0;0;0;0;5;0;26150;0;0;0;0;0;0;6;0;19769;0;0;0;0;0;0;7;0;18587;0;0;0;0;8;0;17679;0;0;0;0;9;0;9271;0;0;0;0
11.02.20;22:55:00;1;245;22798;0;2;0;13132;0;0;0;0;3;0;8338;0;0;0;0;4;0;10449;0;0;0;0;5;0;26150;2;0;0;0;0;0;6;0;19769;2;0;0;0;0;0;7;0;18587;0;0;0;0;8;0;17679;0;0;0;0;9;0;9271;0;0;0;0
11.02.20;22:50:00;1;977;22778;0;2;0;13132;0;0;0;0;3;0;8338;0;0;0;0;4;0;10449;0;0;0;0;5;0;26150;2;0;0;0;0;0;6;0;19769;2;0;0;0;0;0;7;0;18587;0;0;0;0;8;0;17679;0;0;0;0;9;0;9271;0;0;0;0
11.02.20;22:45:00;1;310;22730;0;2;0;13132;0;0;0;0;3;0;8338;0;0;0;0;4;0;10449;0;0;0;0;5;0;26150;2;0;0;0;0;0;6;0;19769;2;0;0;0;0;0;7;0;18587;0;0;0;0;8;0;17679;0;0;0;0;9;0;9271;0;0;0;0
11.02.20;22:40:00;1;427;22704;0;2;0;13132;0;0;0;0;3;0;8338;0;0;0;0;4;0;10449;0;0;0;0;5;0;26150;2;0;0;0;0;0;6;0;19769;2;0;0;0;0;0;7;0;18587;0;0;0;0;8;0;17679;0;0;0;0;9;0;9271;0;0;0;0
11.02.20;22:35:00;1;361;22670;0;2;0;13132;0;0;0;0;3;0;8338;0;0;0;0;4;0;10449;0;0;0;0;5;0;26150;2;0;0;0;0;0;6;0;19769;2;0;0;0;0;0;7;0;18587;0;0;0;0;8;0;17679;0;0;0;0;9;0;9271;0;0;0;0
11.02.20;22:30:00;1;357;22640;0;2;0;13132;0;0;0;0;3;0;8338;0;0;0;0;4;0;10449;0;0;0;0;5;0;26150;2;0;0;0;0;0;6;0;19769;2;0;0;0;0;0;7;0;18587;0;0;0;0;8;0;17679;0;0;0;0;9;0;9271;0;0;0;0
11.02.20;22:25:00;1;359;22610;0;2;0;13132;0;0;0;0;3;0;8338;0;0;0;0;4;0;10449;0;0;0;0;5;0;26150;2;0;0;0;0;0;6;0;19769;2;0;0;0;0;0;7;0;18587;0;0;0;0;8;0;17679;0;0;0;0;9;0;9271;0;0;0;0
11.02.20;22:20:00;1;398;22580;0;2;0;13132;0;0;0;0;3;0;8338;0;0;0;0;4;0;10449;0;0;0;0;5;0;26150;2;0;0;0;0;0;6;0;19769;2;0;0;0;0;0;7;0;18587;0;0;0;0;8;0;17679;0;0;0;0;9;0;9271;0;0;0;0
11.02.20;22:15:00;1;522;22546;0;2;0;13132;0;0;0;0;3;0;8338;0;0;0;0;4;0;10449;0;0;0;0;5;0;26150;2;0;0;0;0;0;6;0;19769;2;0;0;0;0;0;7;0;18587;0;0;0;0;8;0;17679;0;0;0;0;9;0;9271;0;0;0;0
11.02.20;22:10:00;1;492;22483;0;2;0;13132;0;0;0;0;3;0;8338;0;0;0;0;4;0;10449;0;0;0;0;5;0;26150;2;0;0;0;0;0;6;0;19769;2;0;0;0;0;0;7;0;18587;0;0;0;0;8;0;17679;0;0;0;0;9;0;9271;0;0;0;0
11.02.20;22:05:00;1;482;22442;0;2;0;13132;0;0;0;0;3;0;8338;0;0;0;0;4;0;10449;0;0;0;0;5;0;26150;2;0;0;0;0;0;6;0;19769;2;0;0;0;0;0;7;0;18587;0;0;0;0;8;0;17679;0;0;0;0;9;0;9271;0;0;0;0
11.02.20;22:00:00;1;463;22401;0;2;0;13132;0;0;0;0;3;0;8338;0;0;0;0;4;0;10449;0;0;0;0;5;0;26150;2;0;0;0;0;0;6;0;19769;2;0;0;0;0;0;7;0;18587;0;0;0;0;8;0;17679;0;0;0;0;9;0;9271;0;0;0;0
11.02.20;21:55:00;1;469;22363;0;2;0;13132;0;0;0;0;3;0;8338;0;0;0;0;4;0;10449;0;0;0;0;5;0;26150;2;0;0;0;0;0;6;0;19769;2;0;0;0;0;0;7;0;18587;0;0;0;0;8;0;17679;0;0;0;0;9;0;9271;0;0;0;0
11.02.20;21:50:00;1;516;22323;0;2;0;13132;0;0;0;0;3;0;8338;0;0;0;0;4;0;10449;0;0;0;0;5;0;26150;2;0;0;0;0;0;6;0;19769;2;0;0;0;0;0;7;0;18587;0;0;0;0;8;0;17679;0;0;0;0;9;0;9271;0;0;0;0
11.02.20;21:45:00;1;503;22280;0;2;0;13132;0;0;0;0;3;0;8338;0;0;0;0;4;0;10449;0;0;0;0;5;0;26150;2;0;0;0;0;0;6;0;19769;2;0;0;0;0;0;7;0;18587;0;0;0;0;8;0;17679;0;0;0;0;9;0;9271;0;0;0;0
11.02.20;21:40:00;1;484;22238;0;2;0;13132;0;0;0;0;3;0;8338;0;0;0;0;4;0;10449;0;0;0;0;5;0;26150;2;0;0;0;0;0;6;0;19769;2;0;0;0;0;0;7;0;18587;0;0;0;0;8;0;17679;0;0;0;0;9;0;9271;0;0;0;0
11.02.20;21:35:00;1;530;22175;0;2;0;13132;0;0;0;0;3;0;8338;0;0;0;0;4;0;10449;0;0;0;0;5;0;26150;2;0;0;0;0;0;6;0;19769;2;0;0;0;0;0;7;0;18587;0;0;0;0;8;0;17679;0;0;0;0;9;0;9271;0;0;0;0
11.02.20;21:30:00;1;503;22129;0;2;0;13132;0;0;0;0;3;0;8338;0;0;0;0;4;0;10449;0;0;0;0;5;0;26150;2;0;0;0;0;0;6;0;19769;2;0;0;0;0;0;7;0;18587;0;0;0;0;8;0;17679;0;0;0;0;9;0;9271;0;0;0;0
11.02.20;21:25:00;1;521;22087;0;2;0;13132;0;0;0;0;3;0;8338;0;0;0;0;4;0;10449;0;0;0;0;5;0;26150;2;0;0;0;0;0;6;0;19769;2;0;0;0;0;0;7;0;18587;0;0;0;0;8;0;17679;0;0;0;0;9;0;9271;0;0;0;0
11.02.20;21:20:00;1;1057;22043;0;2;0;13132;0;0;0;0;3;0;8338;0;0;0;0;4;0;10449;0;0;0;0;5;0;26150;2;0;0;0;0;0;6;0;19769;2;0;0;0;0;0;7;0;18587;0;0;0;0;8;0;17679;0;0;0;0;9;0;9271;0;0;0;0
11.02.20;21:15:00;1;894;21945;0;2;0;13132;0;0;0;0;3;0;8338;0;0;0;0;4;0;10449;0;0;0;0;5;0;26150;2;0;0;0;0;0;6;0;19769;2;0;0;0;0;0;7;0;18587;0;0;0;0;8;0;17679;0;0;0;0;9;0;9271;0;0;0;0
11.02.20;21:10:00;1;559;21881;0;2;0;13132;0;0;0;0;3;0;8338;0;0;0;0;4;0;10449;0;0;0;0;5;0;26150;2;0;0;0;0;0;6;0;19769;2;0;0;0;0;0;7;0;18587;0;0;0;0;8;0;17679;0;0;0;0;9;0;9271;0;0;0;0
11.02.20;21:05:00;1;593;21835;0;2;0;13132;0;0;0;0;3;0;8338;0;0;0;0;4;0;10449;0;0;0;0;5;0;26150;2;0;0;0;0;0;6;0;19769;2;0;0;0;0;0;7;0;18587;0;0;0;0;8;0;17679;0;0;0;0;9;0;9271;0;0;0;0
11.02.20;21:00:00;1;1259;21783;0;2;0;13132;0;0;0;0;3;0;8338;0;0;0;0;4;0;10449;0;0;0;0;5;0;26150;2;0;0;0;0;0;6;0;19769;2;0;0;0;0;0;7;0;18587;0;0;0;0;8;0;17679;0;0;0;0;9;0;9271;0;0;0;0
11.02.20;20:55:00;1;673;21704;0;2;0;13132;0;0;0;0;3;0;8338;0;0;0;0;4;0;10449;0;0;0;0;5;0;26150;2;0;0;0;0;0;6;0;19769;2;0;0;0;0;0;7;0;18587;0;0;0;0;8;0;17679;0;0;0;0;9;0;9271;0;0;0;0
11.02.20;20:50:00;1;618;21648;0;2;0;13132;0;0;0;0;3;0;8338;0;0;0;0;4;0;10449;0;0;0;0;5;0;26150;2;0;0;0;0;0;6;0;19769;2;0;0;0;0;0;7;0;18587;0;0;0;0;8;0;17679;0;0;0;0;9;0;9271;0;0;0;0
11.02.20;20:45:00;1;600;21597;0;2;0;13132;0;0;0;0;3;0;8338;0;0;0;0;4;0;10449;0;0;0;0;5;0;26150;2;0;0;0;0;0;6;0;19769;2;0;0;0;0;0;7;0;18587;0;0;0;0;8;0;17679;0;0;0;0;9;0;9271;0;0;0;0
11.02.20;20:40:00;1;610;21547;0;2;0;13132;0;0;0;0;3;0;8338;0;0;0;0;4;0;10449;0;0;0;0;5;0;26150;2;0;0;0;0;0;6;0;19769;2;0;0;0;0;0;7;0;18587;0;0;0;0;8;0;17679;0;0;0;0;9;0;9271;0;0;0;0
11.02.20;20:35:00;1;717;21495;0;2;0;13132;0;0;0;0;3;0;8338;0;0;0;0;4;0;10449;0;0;0;0;5;0;26150;2;0;0;0;0;0;6;0;19769;2;0;0;0;0;0;7;0;18587;0;0;0;0;8;0;17679;0;0;0;0;9;0;9271;0;0;0;0
11.02.20;20:30:00;1;1346;21428;0;2;0;13132;0;0;0;0;3;0;8338;0;0;0;0;4;0;10449;0;0;0;0;5;0;26150;2;0;0;0;0;0;6;0;19769;2;0;0;0;0;0;7;0;18587;0;0;0;0;8;0;17679;0;0;0;0;9;0;9271;0;0;0;0
11.02.20;20:25:00;1;1297;21316;0;2;0;13132;0;0;0;0;3;0;8338;0;0;0;0;4;0;10449;0;0;0;0;5;0;26150;2;0;0;0;0;0;6;0;19769;2;0;0;0;0;0;7;0;18587;0;0;0;0;8;0;17679;0;0;0;0;9;0;9271;0;0;0;0
11.02.20;20:20:00;1;1267;21207;0;2;0;13132;0;0;0;0;3;0;8338;0;0;0;0;4;0;10449;0;0;0;0;5;0;26150;2;0;0;0;0;0;6;0;19769;2;0;0;0;0;0;7;0;18587;0;0;0;0;8;0;17679;0;0;0;0;9;0;9271;0;0;0;0
11.02.20;20:15:00;1;1859;21088;0;2;0;13132;0;0;0;0;3;0;8338;0;0;0;0;4;0;10449;0;0;0;0;5;0;26150;2;0;0;0;0;0;6;0;19769;2;0;0;0;0;0;7;0;18587;0;0;0;0;8;0;17679;0;0;0;0;9;0;9271;0;0;0;0
11.02.20;20:10:00;1;1143;20981;0;2;0;13132;0;0;0;0;3;0;8338;0;0;0;0;4;0;10449;0;0;0;0;5;0;26150;2;0;0;0;0;0;6;0;19769;2;0;0;0;0;0;7;0;18587;0;0;0;0;8;0;17679;0;0;0;0;9;0;9271;0;0;0;0
11.02.20;20:05:00;1;598;20889;0;2;0;13132;0;0;0;0;3;0;8338;0;0;0;0;4;0;10449;0;0;0;0;5;0;26150;2;0;0;0;0;0;6;0;19769;2;0;0;0;0;0;7;0;18587;0;0;0;0;8;0;17679;0;0;0;0;9;0;9271;0;0;0;0
11.02.20;20:00:00;1;560;20840;0;2;0;13132;0;0;0;0;3;0;8338;0;0;0;0;4;0;10449;0;0;0;0;5;0;26150;2;0;0;0;0;0;6;0;19769;2;0;0;0;0;0;7;0;18587;0;0;0;0;8;0;17679;0;0;0;0;9;0;9271;0;0;0;0
11.02.20;19:55:00;1;585;20793;0;2;0;13132;0;0;0;0;3;0;8338;0;0;0;0;4;0;10449;0;0;0;0;5;0;26150;2;0;0;0;0;0;6;0;19769;2;0;0;0;0;0;7;0;18587;0;0;0;0;8;0;17679;0;0;0;0;9;0;9271;0;0;0;0
11.02.20;19:50:00;1;537;20746;0;2;0;13132;0;0;0;0;3;0;8338;0;0;0;0;4;0;10449;0;0;0;0;5;0;26150;2;0;0;0;0;0;6;0;19769;2;0;0;0;0;0;7;0;18587;0;0;0;0;8;0;17679;0;0;0;0;9;0;9271;0;0;0;0
11.02.20;19:45:00;1;537;20701;0;2;0;13132;0;0;0;0;3;0;8338;0;0;0;0;4;0;10449;0;0;0;0;5;0;26150;2;0;0;0;0;0;6;0;19769;2;0;0;0;0;0;7;0;18587;0;0;0;0;8;0;17679;0;0;0;0;9;0;9271;0;0;0;0
11.02.20;19:40:00;1;538;20656;0;2;0;13132;0;0;0;0;3;0;8338;0;0;0;0;4;0;10449;0;0;0;0;5;0;26150;2;0;0;0;0;0;6;0;19769;2;0;0;0;0;0;7;0;18587;0;0;0;0;8;0;17679;0;0;0;0;9;0;9271;0;0;0;0
11.02.20;19:35:00;1;551;20611;0;2;0;13132;0;0;0;0;3;0;8338;0;0;0;0;4;0;10449;0;0;0;0;5;0;26150;2;0;0;0;0;0;6;0;19769;2;0;0;0;0;0;7;0;18587;0;0;0;0;8;0;17679;0;0;0;0;9;0;9271;0;0;0;0
11.02.20;19:30:00;1;550;20564;0;2;0;13132;0;0;0;0;3;0;8338;0;0;0;0;4;0;10449;0;0;0;0;5;0;26150;2;0;0;0;0;0;6;0;19769;2;0;0;0;0;0;7;0;18587;0;0;0;0;8;0;17679;0;0;0;0;9;0;9271;0;0;0;0
11.02.20;19:25:00;1;611;20495;0;2;0;13132;0;0;0;0;3;0;8338;0;0;0;0;4;0;10449;0;0;0;0;5;0;26150;2;0;0;0;0;0;6;0;19769;2;0;0;0;0;0;7;0;18587;0;0;0;0;8;0;17679;0;0;0;0;9;0;9271;0;0;0;0
11.02.20;19:20:00;1;578;20443;0;2;0;13132;0;0;0;0;3;0;8338;0;0;0;0;4;0;10449;0;0;0;0;5;0;26150;2;0;0;0;0;0;6;0;19769;2;0;0;0;0;0;7;0;18587;0;0;0;0;8;0;17679;0;0;0;0;9;0;9271;0;0;0;0
11.02.20;19:15:00;1;600;20394;0;2;0;13132;0;0;0;0;3;0;8338;0;0;0;0;4;0;10449;0;0;0;0;5;0;26150;2;0;0;0;0;0;6;0;19769;2;0;0;0;0;0;7;0;18587;0;0;0;0;8;0;17679;0;0;0;0;9;0;9271;0;0;0;0
11.02.20;19:10:00;1;570;20344;0;2;0;13132;0;0;0;0;3;0;8338;0;0;0;0;4;0;10449;0;0;0;0;5;0;26150;2;0;0;0;0;0;6;0;19769;2;0;0;0;0;0;7;0;18587;0;0;0;0;8;0;17679;0;0;0;0;9;0;9271;0;0;0;0
11.02.20;19:05:00;1;571;20296;0;2;0;13132;0;0;0;0;3;0;8338;0;0;0;0;4;0;10449;0;0;0;0;5;0;26150;2;0;0;0;0;0;6;0;19769;2;0;0;0;0;0;7;0;18587;0;0;0;0;8;0;17679;0;0;0;0;9;0;9271;0;0;0;0
11.02.20;19:00:00;1;586;20248;0;2;0;13132;0;0;0;0;3;0;8338;0;0;0;0;4;0;10449;0;0;0;0;5;0;26150;2;0;0;0;0;0;6;0;19769;2;0;0;0;0;0;7;0;18587;0;0;0;0;8;0;17679;0;0;0;0;9;0;9271;0;0;0;0
11.02.20;18:55:00;1;591;20200;0;2;0;13132;0;0;0;0;3;0;8338;0;0;0;0;4;0;10449;0;0;0;0;5;0;26150;2;0;0;0;0;0;6;0;19769;2;0;0;0;0;0;7;0;18587;0;0;0;0;8;0;17679;0;0;0;0;9;0;9271;0;0;0;0
11.02.20;18:50:00;1;622;20150;0;2;0;13132;0;0;0;0;3;0;8338;0;0;0;0;4;0;10449;0;0;0;0;5;0;26150;2;0;0;0;0;0;6;0;19769;2;0;0;0;0;0;7;0;18587;0;0;0;0;8;0;17679;0;0;0;0;9;0;9271;0;0;0;0
11.02.20;18:45:00;1;917;20099;0;2;0;13132;0;0;0;0;3;0;8338;0;0;0;0;4;0;10449;0;0;0;0;5;0;26150;2;0;0;0;0;0;6;0;19769;2;0;0;0;0;0;7;0;18587;0;0;0;0;8;0;17679;0;0;0;0;9;0;9271;0;0;0;0
11.02.20;18:40:00;1;589;20027;0;2;0;13132;0;0;0;0;3;0;8338;0;0;0;0;4;0;10449;0;0;0;0;5;0;26150;2;0;0;0;0;0;6;0;19769;2;0;0;0;0;0;7;0;18587;0;0;0;0;8;0;17679;0;0;0;0;9;0;9271;0;0;0;0
11.02.20;18:35:00;1;586;19977;0;2;0;13132;0;0;0;0;3;0;8338;0;0;0;0;4;0;10449;0;0;0;0;5;0;26150;2;0;0;0;0;0;6;0;19769;2;0;0;0;0;0;7;0;18587;0;0;0;0;8;0;17679;0;0;0;0;9;0;9271;0;0;0;0
11.02.20;18:30:00;1;1505;19930;0;2;0;13132;0;0;0;0;3;0;8338;0;0;0;0;4;0;10449;0;0;0;0;5;0;26150;2;0;0;0;0;0;6;0;19769;2;0;0;0;0;0;7;0;18587;0;0;0;0;8;0;17679;0;0;0;0;9;0;9271;0;0;0;0
11.02.20;18:25:00;1;3329;19790;0;2;0;13132;0;0;0;0;3;0;8338;0;0;0;0;4;0;10449;0;0;0;0;5;0;26150;2;0;0;0;0;0;6;0;19769;2;0;0;0;0;0;7;0;18587;0;0;0;0;8;0;17679;0;0;0;0;9;0;9271;0;0;0;0
11.02.20;18:20:00;1;2761;19584;0;2;0;13132;0;0;0;0;3;0;8338;0;0;0;0;4;0;10449;0;0;0;0;5;0;26150;2;0;0;0;0;0;6;0;19769;2;0;0;0;0;0;7;0;18587;0;0;0;0;8;0;17679;0;0;0;0;9;0;9271;0;0;0;0
11.02.20;18:15:00;1;2909;19344;0;2;0;13132;0;0;0;0;3;0;8338;0;0;0;0;4;0;10449;0;0;0;0;5;0;26150;2;0;0;0;0;0;6;0;19769;2;0;0;0;0;0;7;0;18587;0;0;0;0;8;0;17679;0;0;0;0;9;0;9271;0;0;0;0
11.02.20;18:10:00;1;3470;19115;0;2;0;13132;0;0;0;0;3;0;8338;0;0;0;0;4;0;10449;0;0;0;0;5;0;26150;2;0;0;0;0;0;6;0;19769;2;0;0;0;0;0;7;0;18587;0;0;0;0;8;0;17679;0;0;0;0;9;0;9271;0;0;0;0
11.02.20;18:05:00;1;3280;18892;0;2;0;13132;0;0;0;0;3;0;8338;0;0;0;0;4;0;10449;0;0;0;0;5;0;26150;2;0;0;0;0;0;6;0;19769;2;0;0;0;0;0;7;0;18587;0;0;0;0;8;0;17679;0;0;0;0;9;0;9271;0;0;0;0
11.02.20;18:00:00;1;4310;18623;0;2;0;13132;0;0;0;0;3;0;8338;0;0;0;0;4;0;10449;0;0;0;0;5;0;26150;2;0;0;0;0;0;6;0;19769;2;0;0;0;0;0;7;0;18587;0;0;0;0;8;0;17679;0;0;0;0;9;0;9271;0;0;0;0
11.02.20;17:55:00;1;3537;18290;0;2;0;13132;0;0;0;0;3;0;8338;0;0;0;0;4;0;10449;0;0;0;0;5;0;26150;2;0;0;0;0;0;6;0;19769;2;0;0;0;0;0;7;0;18587;0;0;0;0;8;0;17679;0;0;0;0;9;0;9271;0;0;0;0
11.02.20;17:50:00;1;3012;18006;0;2;0;13132;0;0;0;0;3;0;8338;0;0;73;4;4;0;10449;0;0;0;0;5;0;26150;2;0;0;0;0;0;6;0;19769;2;0;0;0;0;0;7;0;18587;0;0;0;0;8;0;17679;0;0;0;0;9;0;9271;0;0;0;0
11.02.20;17:45:00;1;3065;17736;0;2;0;13132;2;0;276;14;3;0;8338;6;0;305;16;4;0;10449;0;0;20;4;5;0;26150;2;0;0;0;0;0;6;0;19769;2;0;0;0;0;0;7;0;18587;0;0;0;0;8;0;17679;0;0;0;0;9;0;9271;0;0;0;0
11.02.20;17:40:00;1;1110;17524;0;2;0;13132;6;0;332;14;3;0;8338;6;1;386;16;4;0;10449;2;0;94;13;5;0;26150;2;4;7;64;64;8;6;0;19769;2;0;0;0;0;0;7;0;18587;0;0;40;3;8;0;17679;0;0;0;0;9;0;9271;0;0;0;0
11.02.20;17:35:00;1;1124;17429;0;2;0;13132;6;0;371;15;3;0;8338;6;4;416;17;4;0;10449;1;0;146;13;5;0;26150;1;0;1;333;331;24;6;0;19769;23;12;4;182;403;22;7;0;18587;6;0;297;18;8;0;17679;6;0;291;17;9;0;9271;6;0;297;12
11.02.20;17:30:00;1;776;17341;0;2;0;13132;6;0;397;15;3;1;8338;6;3;482;17;4;0;10449;1;0;199;14;5;0;26150;26;0;0;413;584;25;6;0;19769;23;7;2;186;547;23;7;0;18587;6;0;396;19;8;0;17679;6;1;374;18;9;0;9271;6;0;397;13
11.02.20;17:25:00;1;746;17277;0;2;1;13132;6;8;400;16;3;2;8338;6;5;497;17;4;0;10449;1;0;205;14;5;9;26150;4;0;0;415;650;25;6;0;19769;23;7;2;188;575;23;7;0;18587;6;2;430;19;8;0;17679;6;2;431;18;9;0;9271;6;2;458;13
11.02.20;17:20:00;1;753;17214;0;2;3;13132;6;8;412;17;3;2;8337;4;5;512;18;4;0;10449;3;0;219;15;5;75;26149;4;7;9;372;589;26;6;17;19769;23;6;14;488;533;24;7;1;18587;6;8;438;20;8;0;17679;6;4;459;19;9;2;9271;6;4;474;14
11.02.20;17:15:00;1;824;17152;0;2;30;13132;6;57;370;17;3;5;8337;3;17;490;18;4;0;10449;3;0;200;15;5;99;26142;4;22;22;372;589;26;6;57;19768;4;15;27;454;427;25;7;0;18587;6;0;496;20;8;2;17679;6;8;370;15;9;0;9271;6;0;540;14
11.02.20;17:10:00;1;1188;17076;0;2;49;13129;4;85;367;18;3;4;8337;6;9;534;18;4;4;10449;3;5;199;15;5;119;26134;4;37;28;372;589;27;6;77;19763;4;34;45;454;427;25;7;8;18587;3;17;460;21;8;3;17679;6;7;484;20;9;2;9271;4;10;507;14
11.02.20;17:05:00;1;811;16993;0;2;94;13125;4;131;363;19;3;8;8336;6;15;544;19;4;26;10448;3;27;198;16;5;149;26124;4;50;43;372;589;27;6;94;19756;4;35;46;454;426;25;7;41;18587;4;87;401;21;8;43;17679;4;74;387;20;9;3;9270;6;8;537;14
11.02.20;17:00:00;1;855;16925;0;2;99;13117;4;137;374;20;3;42;8336;6;71;475;19;4;37;10446;3;39;197;16;5;174;26111;4;63;55;372;589;27;6;111;19748;4;58;74;454;427;25;7;74;18583;4;103;441;22;8;59;17675;4;97;418;20;9;4;9270;6;9;542;15
11.02.20;16:55:00;1;858;16853;0;2;327;13109;4;371;387;21;3;195;8333;4;239;455;20;4;230;10443;3;240;204;16;5;304;26097;4;147;112;372;589;27;6;202;19739;4;104;111;454;427;25;7;250;18577;4;298;455;22;8;90;17671;4;135;456;21;9;6;9270;6;13;555;15
11.02.20;16:50:00;1;854;16782;0;2;198;13083;4;240;388;22;3;110;8318;4;150;447;21;4;115;10425;3;119;214;17;5;268;26072;4;119;100;372;589;27;6;186;19722;4;88;98;476;448;25;7;176;18557;4;212;447;23;8;121;17663;4;163;433;21;9;8;9269;6;12;563;16
11.02.20;16:45:00;1;819;16711;0;2;982;13067;4;1047;356;23;3;592;8309;4;647;442;22;4;547;10416;5;569;201;17;5;817;26049;4;410;330;417;698;28;6;617;19707;4;302;324;612;582;26;7;821;18542;4;891;487;23;8;289;17653;4;334;498;22;9;55;9269;6;83;531;16
11.02.20;16:40:00;1;845;16640;0;2;1317;12989;4;1395;379;24;3;730;8262;4;792;456;22;4;705;10373;5;734;205;17;5;1112;25974;4;565;457;425;709;28;6;823;19650;4;418;440;613;592;26;7;1383;18477;4;1466;499;23;8;403;17629;4;450;436;22;9;81;9264;4;118;532;17
11.02.20;16:35:00;1;794;16571;0;2;1474;12880;4;1564;408;25;3;751;8201;4;815;450;22;4;677;10314;5;705;213;17;5;1188;25885;4;608;499;423;696;28;6;926;19581;4;472;489;622;595;26;7;1558;18362;4;1646;486;24;8;592;17596;4;639;369;23;9;96;9257;4;129;524;17
11.02.20;16:30:00;1;1252;16504;0;2;1703;12759;4;1802;402;26;3;901;8141;4;968;460;22;4;780;10259;5;812;208;17;5;1526;25777;4;778;645;436;717;28;6;1161;19500;4;568;583;620;591;26;7;2179;18240;4;2294;502;24;8;1203;17549;4;1266;376;23;9;108;9250;4;146;524;18
11.02.20;16:25:00;1;786;16410;0;2;1860;12618;4;1963;411;26;3;963;8066;4;1028;428;23;4;829;10194;5;864;205;18;5;1780;25648;4;908;752;436;711;28;6;1337;19402;4;702;714;623;595;26;7;2422;18059;4;2545;500;24;8;1676;17449;4;1761;409;24;9;114;9241;4;145;455;18
11.02.20;16:20:00;1;798;16345;0;2;1987;12462;4;2095;408;27;3;1098;7985;4;1168;445;23;4;894;10125;5;931;202;18;5;2021;25499;4;1049;867;429;716;28;6;1530;19289;4;770;769;624;592;26;7;2634;17857;4;2759;502;24;8;2091;17309;4;2190;441;24;9;153;9231;4;183;357;19
11.02.20;16:15:00;1;800;16277;0;2;2122;12297;4;2241;408;27;3;1216;7894;4;1294;448;23;4;942;10050;5;982;202;18;5;2219;25329;4;1165;948;436;728;29;6;1651;19161;4;818;809;624;594;26;7;2732;17638;4;2867;498;24;8;2561;17135;4;2683;472;24;9;400;9219;4;438;356;19
11.02.20;16:10:00;1;901;16205;0;2;2215;12121;4;2335;402;27;3;1216;7793;4;1293;458;23;4;900;9972;5;938;202;18;5;2413;25148;4;1281;1044;439;711;29;6;1745;19024;4;894;889;618;591;26;7;2753;17408;4;2892;502;24;8;2651;16923;4;2782;499;24;9;762;9185;4;814;357;20
11.02.20;16:05:00;1;888;16130;0;2;2433;11937;4;2562;401;27;3;1368;7692;4;1451;452;23;4;953;9898;5;992;203;18;5;2803;24948;4;1502;1212;440;715;29;6;2047;18874;4;1037;1031;631;603;26;7;3189;17178;4;3354;509;24;8;3058;16704;4;3217;501;24;9;1133;9123;4;1195;404;21
11.02.20;16:00:00;1;837;16050;0;2;1850;11734;4;1956;401;26;3;1013;7579;4;1085;471;23;4;703;9819;5;732;220;18;5;2197;24713;4;1170;948;431;695;29;6;1699;18697;4;870;880;605;588;26;7;2278;16912;4;2403;493;24;8;2337;16448;4;2452;480;24;9;1012;9030;4;1079;466;21
11.02.20;15:55:00;1;788;15980;0;2;1814;11577;4;1923;400;27;3;1021;7493;4;1094;466;23;4;662;9759;5;690;229;18;5;2312;24546;4;1235;1003;424;688;29;6;1923;18567;4;978;970;614;590;26;7;2214;16718;4;2331;497;24;8;2059;16249;4;2173;495;24;9;1079;8944;4;1148;478;22
11.02.20;15:50:00;1;792;15915;0;2;2287;11434;4;2415;402;28;3;1219;7412;4;1298;452;24;4;741;9706;5;771;217;19;5;2644;24335;4;1416;1149;437;694;29;6;2044;18408;4;1041;1031;611;593;26;7;3118;16562;4;3275;493;24;8;3055;16106;4;3210;492;24;9;1498;8868;4;1590;497;22
11.02.20;15:45:00;1;820;15849;0;2;2770;11252;4;2913;406;28;3;1564;7315;4;1653;449;24;4;925;9647;5;963;207;19;5;3566;24095;4;1918;1557;445;719;29;6;2696;18232;4;1376;1359;622;603;26;7;3539;16306;4;3716;503;24;8;3613;15852;4;3783;488;24;9;1905;8744;4;2012;501;23
11.02.20;15:40:00;1;1738;15776;0;2;2859;11023;4;2995;411;27;3;1594;7185;4;1684;457;23;4;949;9570;5;988;219;19;5;3899;23794;4;2117;1712;438;712;29;6;2971;18004;4;1532;1501;627;593;26;7;4002;16027;4;4211;493;24;8;3966;15563;4;4155;492;24;9;2063;8590;4;2179;520;23
11.02.20;15:35:00;1;838;15682;0;2;2565;10784;4;2702;411;26;3;1436;7052;4;1524;458;23;4;949;9491;5;988;228;19;5;3634;23471;4;1961;1595;436;702;29;6;2667;17757;4;1408;1371;611;598;26;7;2907;15689;4;3050;476;24;8;2831;15226;4;2972;486;24;9;1595;8413;4;1694;527;23
11.02.20;15:30:00;1;1633;15605;0;2;2912;10571;4;3068;412;26;3;1634;6933;4;1728;446;23;4;1134;9412;5;1181;245;19;5;4383;23187;4;2395;1934;427;698;29;6;3581;17544;4;1853;1807;624;600;26;7;4324;15430;4;4540;496;23;8;3879;14976;4;4059;484;23;9;2157;8273;4;2285;546;23
11.02.20;15:25:00;1;815;15490;0;2;3024;10326;4;3187;417;24;3;1643;6796;4;1741;485;22;4;1411;9318;5;1469;255;19;5;4821;22819;4;2648;2127;441;720;29;6;3677;17266;4;1893;1847;619;593;26;7;4714;15073;4;4944;493;23;8;4904;14651;4;5139;492;23;9;2661;8093;4;2814;539;21
11.02.20;15:20:00;1;1631;15347;0;2;645;10095;4;707;410;23;3;371;6666;4;428;513;22;4;518;9206;5;540;243;20;5;1334;22469;4;678;566;430;684;29;6;953;16997;4;483;503;597;574;26;7;711;14682;4;757;400;19;8;845;14244;4;903;491;23;9;469;7871;4;521;527;20
11.02.20;15:15:00;1;966;15262;0;2;1349;10039;4;1431;406;24;3;633;6635;4;698;521;23;4;822;9162;5;856;254;20;5;1987;22363;4;1045;852;437;702;29;6;1509;16916;4;766;775;610;584;26;7;1358;14615;4;1434;495;24;8;1401;14173;4;1483;480;24;9;773;7832;4;838;540;21
11.02.20;15:10:00;1;1842;15183;0;2;681;9928;4;742;407;24;3;403;6583;4;458;520;23;4;566;9094;5;589;243;21;5;1451;22176;4;746;615;425;675;29;6;1130;16776;4;565;565;601;575;27;7;1014;14509;4;1074;486;24;8;1004;14064;4;1065;474;24;9;551;7772;4;607;539;21
11.02.20;15:05:00;1;1915;15041;0;2;1271;9870;4;1361;416;26;3;710;6549;4;778;531;24;4;919;9046;5;958;254;21;5;2015;22067;4;1051;861;434;701;30;6;1514;16693;4;761;776;601;583;27;7;1490;14417;4;1571;499;25;8;1744;13974;4;1837;476;24;9;1050;7722;4;1129;539;22
11.02.20;15:00:00;1;943;14890;0;2;833;9759;4;902;409;26;3;523;6488;4;583;510;24;4;727;8967;5;757;242;22;5;1892;21845;4;991;823;414;674;30;6;1473;16525;4;757;768;583;569;27;7;1513;14295;4;1596;477;25;8;1745;13836;4;1842;484;25;9;986;7637;4;1058;533;22
11.02.20;14:55:00;1;1128;14789;0;2;2725;9690;4;2877;416;28;3;1650;6444;4;1758;520;25;4;1493;8906;5;1555;253;22;5;4113;21707;4;2234;1821;441;699;30;6;2856;16421;4;1449;1394;609;591;27;7;3193;14165;4;3352;485;25;8;3022;13680;4;3177;495;25;9;1650;7549;4;1759;539;23
11.02.20;14:50:00;1;980;14678;0;2;2215;9474;4;2350;432;28;3;1330;6311;4;1425;521;25;4;1314;8785;5;1368;244;23;5;3475;21414;4;1873;1535;424;696;30;6;2303;16203;4;1186;1139;599;565;27;7;2265;13899;4;2385;483;25;8;2192;13428;4;2308;469;25;9;1282;7410;4;1374;539;24
11.02.20;14:45:00;1;1918;14545;0;2;834;9294;4;900;395;27;3;604;6203;4;666;514;25;4;770;8678;5;802;245;23;5;1756;21113;4;906;754;414;675;30;6;1648;15982;4;865;848;598;565;27;7;1858;13714;4;1958;469;25;8;1804;13248;4;1901;469;25;9;969;7307;4;1046;516;23
11.02.20;14:40:00;1;1688;14448;0;2;3158;9222;4;3334;432;29;3;1784;6151;4;1901;544;26;4;1855;8612;5;1932;253;24;5;4463;20981;4;2437;1967;430;717;30;6;3164;15879;4;1662;1611;627;601;27;7;3281;13525;4;3438;442;25;8;3497;13064;4;3668;493;25;9;2159;7206;4;2293;530;24
11.02.20;14:35:00;1;866;14320;0;2;2386;8966;4;2526;423;28;3;1590;6007;4;1697;539;25;4;2073;8461;5;2159;256;23;5;5769;20583;4;3209;2563;436;702;30;6;4300;15580;4;2189;2155;598;574;27;7;4591;13258;4;4811;471;25;8;4565;12781;4;4805;499;25;9;2635;7032;4;2798;544;24
11.02.20;14:30:00;1;879;14200;0;2;2460;8786;4;2608;423;28;3;1503;5886;4;1605;520;25;4;1559;8297;5;1624;248;23;5;3734;20197;4;2036;1633;433;706;30;6;3028;15286;4;1536;1511;622;593;27;7;2621;12884;4;2773;505;25;8;2581;12404;4;2716;490;25;9;1635;6815;4;1749;551;24